Погода в Янгантау

Россия / Республика Башкортостан     55°18′03″N   58°08′18″E
темп.,
°C
ветер,
м/с
пор.,
м/с
влажн.,
%
обл.,
%
осадки,
мм/ч
давл.,
гПа
погр.,
м
22 апреля, чт
чт2223:00+6ююв225590 0.0 103115
02:00+5ю2259100 0.0 103118
05:00+4ююв2263100 0.0 103215
08:00+6ююв2359100 0.0 1032114
11:00+8ю2454100 0.1 1032521
14:00+11юз6941100 0.0 10311656
17:00+10зюз375287 0.0 1030749
20:00+8юз41054100 0.0 1032542
23 апреля, пт
пт2323:00+6ююз2262100 0.0 103145
02:00+4зюз2585100 0.6 1031456
05:00+4ююв2793100 2.3 1032582
08:00+4ю2789100 0.1 1031714
11:00+5ю2582100 0.1 1031743
14:00+9юз366399 0.0 10301309
17:00+11ююв2357100 0.0 10281305
20:00+8всв2272100 0.0 102713
24 апреля, сб
сб2423:00+7вюв1178100 0.0 102610
02:00+7ююв2281100 0.1 102530
05:00+6вюв1191100 0.6 102425
08:00+6в2692100 0.9 1022415
11:00+8юв5773100 1.3 1020875
14:00+10юв71060100 0.1 10181368
17:00+9юв71057100 0.1 10171543
20:00+6юв5107278 0.0 1016801
25 апреля, вс
вс2523:00+5вюв488299 0.0 1016480
02:00+5ююв238298 0.1 1015159
05:00+4юв2285100 0.1 101569
08:00+4ююв3791100 0.1 1015710
11:00+10ю466128 0.1 10131067
14:00+10юз91376100 0.9 10131523
17:00+9зюз71262100 1.9 10141605
20:00+7зюз497098 0.2 1016416
26 апреля, пн
пн2623:00+5ююз388292 0.4 1016219
02:00+3ююз368667 0.0 1017109
05:00+2ююз34894 0.0 101880
08:00+5юз49805 0.0 1018558
11:00+9зюз69545 0.0 10171312
14:00+11зюз6947100 0.0 10161867
17:00+11з7105395 0.1 10161618
20:00+8зюз2363100 0.0 101744